Lexington Weather

Lexington, Massachusetts, USA

75°F
9/22/2021 12:47pm 
  • Lexington Conditions: Overcast
  • Temperature: 75.2°F / 24.0°CWarmer 0.5°F than last hour.
  • Dew Point: 68.2°FDecreased 0.5°Fsince last hour.
  • Relative Humidity: 79%Decreased 3.0% since last hour.
  • Wind: Wind from SSW SSW 5 mph, 10-min avg: 3 mph, gust: 12 mph
  • Barometer: 30.11 inFalling 0.02  inHg/hr Falling Slowly
  • Visibility: 10 miles
  • Rain Today: 0.00 in
  •   

Regional Weather Roundup
for Boston / Norton, MA

        
000
ASUS41 KBOX 191204
RWRBOX

REGIONAL WEATHER ROUNDUP
NATIONAL WEATHER SERVICE BOSTON/NORTON MA
800 AM EDT SUN SEP 19 2021

NOTE:  "FAIR" INDICATES FEW OR NO CLOUDS BELOW 12,000 FEET WITH NO 
SIGNIFICANT WEATHER AND/OR OBSTRUCTIONS TO VISIBILITY.

MAZALL-191300-
EASTERN MASSACHUSETTS
  
CITY           SKY/WX    TMP DP  RH WIND       PRES   REMARKS
BOSTON         PTSUNNY   65  54  67 N12       30.12R                  
6HR MIN TEMP:  65; 6HR MAX TEMP:  70; 6HR PCP:  0.17;                

BEVERLY        CLOUDY    63  55  75 N8        30.12R                  
LAWRENCE       CLOUDY    61  57  87 N5        30.15R                  
BEDFORD        CLOUDY    61  57  87 N7        30.12R                  
BLUE HILL      NOT AVBL                                               
NORWOOD        PTSUNNY   63  56  78 N8        30.12R                  
MARSHFIELD     CLOUDY    64  55  72 VRB7G20   30.10R                  
PLYMOUTH       SUNNY     64  58  80 N9        30.10R                  
TAUNTON        PTSUNNY   63  57  81 VRB6      30.10R                  
NEW BEDFORD    SUNNY     65  58  78 N9        30.08R                  
$$

MAZALL-191300-
CAPE COD AND THE ISLANDS
  
CITY           SKY/WX    TMP DP  RH WIND       PRES   REMARKS
FALMOUTH       SUNNY     63  59  88 N10       30.05S                  
HYANNIS        MOSUNNY   66  60  81 NE10      30.06R                  
CHATHAM        MOSUNNY   65  58  78 N9        30.07R                  
PROVINCETOWN   PTSUNNY   64  58  80 N16G24    30.09R                  
NANTUCKET      CLOUDY    68  59  73 N21G28    30.05R                  
MARTHAS VNYRD  MOSUNNY   65  60  84 N15G23    30.06R                  
$$
 
MAZALL-191300-
CENTRAL AND WESTERN MASSACHUSETTS
  
CITY           SKY/WX    TMP DP  RH WIND       PRES   REMARKS
WORCESTER      PTSUNNY   61  49  64 N9        30.15R                  
6HR MIN TEMP:  59; 6HR MAX TEMP:  66;                                

FITCHBURG      CLOUDY    62  50  64 NW5       30.15R                  
ORANGE         SUNNY     56  53  90 CALM      30.18R                  
SPRINGFIELD    MOSUNNY   60  51  74 NE5       30.15R                  
WESTFIELD      SUNNY     59  53  80 N6        30.15R                  
NORTH ADAMS    FOG       52  51  97 CALM      30.21R VSB 1/4          
PITTSFIELD     SUNNY     55  52  89 NE3       30.18R                  
$$
 
RIZALL-191300-
RHODE ISLAND
  
CITY           SKY/WX    TMP DP  RH WIND       PRES   REMARKS
PROVIDENCE     PTSUNNY   64  57  77 N9        30.11R                  
6HR MIN TEMP:  65; 6HR MAX TEMP:  69;                                

NEWPORT        MOSUNNY   64  60  87 N8        30.09R                  
BLOCK ISLAND   MOSUNNY   65  58  78 NE16G23   30.09R                  
SMITHFIELD     CLOUDY    61  56  83 N12       30.13R                  
WESTERLY       SUNNY     62  58  86 N8        30.09R                  
$$
 
CTZALL-191300-
CONNECTICUT
  
CITY           SKY/WX    TMP DP  RH WIND       PRES   REMARKS
BRADLEY INTL   MOSUNNY   60  53  77 N8        30.15R                  
6HR MIN TEMP:  57; 6HR MAX TEMP:  66;                                

HARTFORD       MOSUNNY   63  52  67 N8        30.14R                  
BRIDGEPORT     SUNNY     65  52  62 N12       30.12R                  
DANBURY        SUNNY     64  54  69 N6        30.17R                  
GROTON         SUNNY     63  55  75 N12       30.09R                  
NEW HAVEN      SUNNY     65  55  70 N16       30.12R                  
CHESTER        FAIR      63  55  77 N9        30.12R                  
MERIDEN        SUNNY     64  50  60 N7        30.14R                  
WILLIMANTIC    PTSUNNY   61  54  77 N6        30.14R                  
OXFORD         SUNNY     58  51  78 N10       30.16R                  
$$

MEZ002-015-021-024-NHZ003-005-008-011-012-014-VTZ005-008-191300-
NORTHERN NEW ENGLAND
  
CITY           SKY/WX    TMP DP  RH WIND       PRES   REMARKS
PORTLAND ME    SUNNY     57  50  77 N12       30.14R                  
6HR MIN TEMP:  54; 6HR MAX TEMP:  61;                                

BANGOR ME      SUNNY     55  46  71 N15       30.13R                  
CONCORD NH     SUNNY     57  50  77 NW6       30.16R                  
MANCHESTER NH  MOSUNNY   63  49  60 N9        30.13R                  
NASHUA NH      PTSUNNY   60  55  83 N5        30.15R                  
PORTSMOUTH NH  MOSUNNY   61  49  65 N9        30.14R                  
JAFFREY NH     SUNNY     54  53  97 CALM      30.17R                  
KEENE NH       SUNNY     52  52 100 CALM      30.18S                  
BURLINGTON VT  PTSUNNY   53  50  89 E3        30.24R                  
MT. WASHINGTON NOT AVBL                                               
$$

NYZ052-076-191300-
EASTERN NEW YORK
  
CITY           SKY/WX    TMP DP  RH WIND       PRES   REMARKS
ALBANY         MOSUNNY   53  53 100 NW5       30.21R                  
6HR MIN TEMP:  51; 6HR MAX TEMP:  57;                                

NEW YORK CITY  MOSUNNY   67  56  67 N10       30.14R                  
6HR MIN TEMP:  67; 6HR MAX TEMP:  73;                                

$$
 
ANZALL-191300-
MARINE OBSERVATIONS
  
STATION/POSITION TIME  TEMP    WIND        PRES    VSBY  WAVE
                       AIR SEA DIR/SP/G                  HT/PER
                 (UTC) (F)     (DEG/KT/KT) (MB)    (MI)  (FT/S)
BOSTON BUOY      1140      66   10/ 19/ 23 1019.7R
BUZZARDS BAY     1100           10/ 17/ 18 1018.6R
NANTUCKET SOUND  1140   67 72   20/ 19/ 23 1017.7R
MASS BAY-STELLWA 1104   64      20/ 19/ 23 1018.2R  1 3/4  5/ 5
ISLE OF SHOALS   1100   62      10/ 16/ 17 1019.0R
S OF BLOCK IS    1126      71                N/A           4/ 9
$$

......................KEY.........................
  SKY/WX - SKY CONDITION/PRESENT WEATHER
  TMP    - TEMPERATURE IN FAHRENHEIT
  DWPT   - DEWPOINT IN FAHRENHEIT
  RH     - RELATIVE HUMIDITY IN PERCENT
  WIND   - DIRECTION AND SPEED IN MPH
  PRES   - MEAN SEA LEVEL PRESSURE IN INCHES OF HG
  WCI    - WIND CHILL INDEX
  VSB    - VISIBILITY IN MILES
  HX     - HEAT INDEX
  TC     - TEMPERATURE IN CELSIUS
  VRB    - VARIABLE WIND DIRECTION
  N/A    - NOT AVAILABLE
  
      

Other recent Regional Weather Roundups

Wed Sep 22, 12:05pm

Wed Sep 22, 11:04am

Wed Sep 22, 10:04am

Wed Sep 22, 9:04am

Wed Sep 22, 8:04am

Wed Sep 22, 7:04am

Wed Sep 22, 6:04am

Wed Sep 22, 5:04am

Wed Sep 22, 4:04am

Wed Sep 22, 3:04am

Wed Sep 22, 2:04am

Wed Sep 22, 1:04am

Wed Sep 22, 12:04am

Tue Sep 21, 11:04pm

Tue Sep 21, 10:04pm

Tue Sep 21, 9:04pm

Tue Sep 21, 8:04pm

Tue Sep 21, 7:04pm

Tue Sep 21, 6:04pm

Tue Sep 21, 5:04pm

Tue Sep 21, 4:04pm

Tue Sep 21, 3:04pm

Tue Sep 21, 2:04pm

Tue Sep 21, 1:04pm

Tue Sep 21, 12:04pm

Tue Sep 21, 11:04am

Tue Sep 21, 10:04am

Tue Sep 21, 9:04am

Tue Sep 21, 8:04am

Tue Sep 21, 7:04am

Tue Sep 21, 6:04am

Tue Sep 21, 5:04am

Tue Sep 21, 4:04am

Tue Sep 21, 3:04am

Tue Sep 21, 2:04am

Tue Sep 21, 1:04am

Tue Sep 21, 12:04am

Mon Sep 20, 11:04pm

Mon Sep 20, 10:04pm

Mon Sep 20, 9:04pm

Mon Sep 20, 8:04pm

Mon Sep 20, 7:04pm

Mon Sep 20, 6:04pm

Mon Sep 20, 5:04pm

Mon Sep 20, 4:04pm

Mon Sep 20, 3:04pm

Mon Sep 20, 2:04pm

Mon Sep 20, 1:04pm

Mon Sep 20, 12:04pm

Mon Sep 20, 11:04am

Mon Sep 20, 10:04am

Mon Sep 20, 9:04am

Mon Sep 20, 7:04am

Mon Sep 20, 6:04am

Mon Sep 20, 5:04am

Mon Sep 20, 4:04am

Mon Sep 20, 3:04am

Mon Sep 20, 2:04am

Mon Sep 20, 1:04am

Mon Sep 20, 12:04am

Sun Sep 19, 11:04pm

Sun Sep 19, 10:04pm

Sun Sep 19, 9:04pm

Sun Sep 19, 8:04pm

Sun Sep 19, 7:04pm

Sun Sep 19, 6:04pm

Sun Sep 19, 5:04pm

Sun Sep 19, 4:04pm

Sun Sep 19, 3:04pm

Sun Sep 19, 2:05pm

Sun Sep 19, 1:04pm

Sun Sep 19, 12:04pm

Sun Sep 19, 11:04am

Sun Sep 19, 10:05am

Sun Sep 19, 9:04am

Sun Sep 19, 7:04am

Sun Sep 19, 6:04am

Sun Sep 19, 5:04am

Sun Sep 19, 4:04am

Sun Sep 19, 3:04am

Sun Sep 19, 2:04am

Sun Sep 19, 1:04am

Sun Sep 19, 12:04am

Sat Sep 18, 11:05pm

Sat Sep 18, 10:04pm

Sat Sep 18, 9:04pm

Sat Sep 18, 8:04pm

Sat Sep 18, 7:04pm

Sat Sep 18, 6:04pm

Sat Sep 18, 5:04pm

Sat Sep 18, 4:04pm

Sat Sep 18, 3:04pm

Sat Sep 18, 2:04pm

Sat Sep 18, 1:04pm

Sat Sep 18, 12:04pm

Sat Sep 18, 11:04am

Sat Sep 18, 10:04am

Sat Sep 18, 9:04am

Sat Sep 18, 8:04am

Sat Sep 18, 7:04am

Sat Sep 18, 6:04am

Sat Sep 18, 5:04am

Sat Sep 18, 4:04am

Sat Sep 18, 3:04am

Sat Sep 18, 2:04am

Sat Sep 18, 1:04am

Sat Sep 18, 12:04am

Fri Sep 17, 11:04pm

Fri Sep 17, 10:04pm

Fri Sep 17, 9:04pm

Fri Sep 17, 8:04pm

Fri Sep 17, 7:04pm

Fri Sep 17, 6:04pm

Fri Sep 17, 5:04pm

Fri Sep 17, 4:04pm

Fri Sep 17, 3:04pm

Fri Sep 17, 2:04pm

Fri Sep 17, 1:04pm

Fri Sep 17, 12:05pm

Fri Sep 17, 11:04am

Fri Sep 17, 10:04am

Fri Sep 17, 9:04am

Fri Sep 17, 8:04am

Fri Sep 17, 7:04am

Fri Sep 17, 6:04am

Fri Sep 17, 5:04am

Fri Sep 17, 4:04am

Fri Sep 17, 3:04am

Fri Sep 17, 2:04am

Fri Sep 17, 1:04am

Fri Sep 17, 12:04am

Thu Sep 16, 11:04pm

Thu Sep 16, 10:04pm

Thu Sep 16, 9:04pm

Thu Sep 16, 8:04pm

Thu Sep 16, 7:04pm

Thu Sep 16, 6:04pm

Thu Sep 16, 5:04pm

Thu Sep 16, 4:04pm

Thu Sep 16, 3:04pm

Thu Sep 16, 2:04pm

Thu Sep 16, 1:05pm

Thu Sep 16, 12:04pm

Thu Sep 16, 11:05am

Thu Sep 16, 10:05am

Thu Sep 16, 9:04am

Thu Sep 16, 8:04am

Thu Sep 16, 7:04am

Thu Sep 16, 6:04am

Thu Sep 16, 5:04am

Thu Sep 16, 4:04am

Thu Sep 16, 3:04am

Thu Sep 16, 2:04am

Thu Sep 16, 1:04am

Thu Sep 16, 12:04am

Wed Sep 15, 11:04pm

Wed Sep 15, 10:04pm

Wed Sep 15, 9:04pm

Wed Sep 15, 8:04pm

Wed Sep 15, 7:04pm

Wed Sep 15, 6:04pm

Wed Sep 15, 5:05pm

Wed Sep 15, 4:04pm

Wed Sep 15, 3:04pm

Wed Sep 15, 2:04pm

Wed Sep 15, 1:04pm

Meta data:

ID: 3788ff7a-932a-4e99-acb8-f089cc8ae054
Link: https://api.weather.gov/products/3788ff7a-932a-4e99-acb8-f089cc8ae054